GW5240 Weather Reports


time (UTC)temp
C
wind
direction
speed
KPH
gust
KPH
rain 1hr
cm
rain 24hr
cm
rain mn
cm
humidity
%
barometer
mb
20260507014144 5 161 0.0 0.0 0.00 0.00 0.00 55 1015.4
20260507013641 5 169 0.0 0.0 0.00 0.00 0.00 53 1015.2
20260507013138 5 168 0.0 0.0 0.00 0.00 0.00 52 1015.2
20260507012635 5 174 0.0 0.0 0.00 0.00 0.00 51 1015.3
20260507012130 5 172 0.0 0.0 0.00 0.00 0.00 51 1015.3
20260507011629 6 163 0.0 0.0 0.00 0.00 0.00 51 1015.5
20260507011125 6 169 0.0 0.0 0.00 0.00 0.00 50 1015.2
20260507010620 6 128 0.0 3.2 0.00 0.00 0.00 49 1015.4
20260507010116 6 166 0.0 3.2 0.00 0.00 0.00 49 1015.3
20260507005613 6 179 0.0 0.0 0.00 0.00 0.00 48 1015.3
20260507005109 7 168 1.6 3.2 0.00 0.00 0.00 47 1015.5
20260507004606 7 179 3.2 4.8 0.00 0.00 0.00 46 1015.3
20260507004104 7 157 3.2 4.8 0.00 0.00 0.00 45 1015.4
20260507003600 7 158 1.6 3.2 0.00 0.00 0.00 45 1015.3
20260507003055 7 7 6.4 8.0 0.00 0.00 0.00 46 1015.6
20260507002552 7 323 3.2 8.0 0.00 0.00 0.00 46 1015.5
20260507002047 7 202 1.6 3.2 0.00 0.00 0.00 46 1015.4
20260507001544 7 172 0.0 3.2 0.00 0.00 0.00 47 1015.4
20260507001042 7 170 3.2 3.2 0.00 0.00 0.00 46 1015.6
20260507000538 7 89 3.2 8.0 0.00 0.00 0.00 46 1015.4
20260507000033 7 349 1.6 4.8 0.00 0.00 0.00 47 1015.4
20260506235531 7 168 0.0 0.0 0.00 0.00 0.00 47 1015.5
20260506235021 7 183 1.6 3.2 0.00 0.00 0.00 47 1015.5
20260506234519 7 151 0.0 3.2 0.00 0.00 0.00 47 1015.4
20260506234016 7 188 4.8 4.8 0.00 0.00 0.00 46 1015.5
20260506233512 7 157 4.8 8.0 0.00 0.00 0.00 46 1015.6
20260506233009 7 91 4.8 4.8 0.00 0.00 0.00 45 1015.5
20260506232506 7 250 3.2 4.8 0.00 0.00 0.00 45 1015.5
20260506232001 7 200 0.0 0.0 0.00 0.00 0.00 47 1015.7
20260506231459 7 187 0.0 3.2 0.00 0.00 0.00 46 1015.7
20260506230956 7 224 6.4 8.0 0.00 0.00 0.00 46 1015.8
20260506230452 7 330 8.0 11.3 0.00 0.00 0.00 46 1015.7
20260506225949 7 346 8.0 11.3 0.00 0.00 0.00 46 1015.6
20260506225447 7 199 3.2 3.2 0.00 0.00 0.00 46 1015.7
20260506224943 7 351 6.4 8.0 0.00 0.00 0.00 46 1015.7
20260506224440 7 165 6.4 11.3 0.00 0.00 0.00 46 1015.9
20260506223936 8 175 1.6 3.2 0.00 0.00 0.00 46 1015.8
20260506223432 8 181 1.6 3.2 0.00 0.00 0.00 46 1015.7
20260506222929 7 173 1.6 3.2 0.00 0.00 0.00 48 1015.7
20260506222425 7 176 3.2 3.2 0.00 0.00 0.00 46 1015.7
20260506221923 7 180 1.6 3.2 0.00 0.00 0.00 46 1015.8
20260506221420 7 197 1.6 3.2 0.00 0.00 0.00 47 1015.8
20260506220918 7 317 4.8 8.0 0.00 0.00 0.00 45 1015.7
20260506220413 7 150 3.2 4.8 0.00 0.00 0.00 46 1015.8
20260506215910 7 355 6.4 8.0 0.00 0.00 0.00 46 1015.8
20260506215406 7 172 3.2 3.2 0.00 0.00 0.00 48 1016.0
20260506214902 7 240 6.4 11.3 0.00 0.00 0.00 46 1016.0
20260506214359 7 177 1.6 3.2 0.00 0.00 0.00 46 1016.1
20260506213857 7 192 3.2 4.8 0.00 0.00 0.00 46 1016.0
20260506213354 7 196 3.2 4.8 0.00 0.00 0.00 46 1016.2
20260506212851 8 158 3.2 4.8 0.00 0.00 0.00 45 1016.3
20260506212346 8 236 0.0 3.2 0.00 0.00 0.00 46 1016.2
20260506211841 7 180 3.2 3.2 0.00 0.00 0.00 46 1016.2
20260506211338 7 181 0.0 0.0 0.00 0.00 0.00 47 1016.3
20260506210835 7 258 4.8 8.0 0.00 0.00 0.00 47 1016.1
20260506210332 7 259 3.2 4.8 0.00 0.00 0.00 47 1016.2
20260506205829 7 192 1.6 3.2 0.00 0.00 0.00 49 1016.4
20260506205325 7 348 4.8 4.8 0.00 0.00 0.00 48 1016.4
20260506204822 7 358 9.7 14.5 0.00 0.00 0.00 48 1016.5
20260506204320 7 26 3.2 8.0 0.00 0.00 0.00 48 1016.4
20260506203817 7 193 3.2 4.8 0.00 0.00 0.00 48 1016.5
20260506203314 7 168 3.2 4.8 0.00 0.00 0.00 47 1016.4
20260506202811 7 80 6.4 8.0 0.00 0.00 0.00 47 1016.3
20260506202308 7 274 3.2 4.8 0.00 0.00 0.00 47 1016.4
20260506201804 7 169 3.2 3.2 0.00 0.00 0.00 48 1016.6
20260506201302 7 311 3.2 4.8 0.00 0.00 0.00 49 1016.6
20260506200759 7 316 4.8 8.0 0.00 0.00 0.00 47 1016.6
20260506200255 7 6 6.4 8.0 0.00 0.00 0.00 49 1016.3
20260506195751 7 177 3.2 3.2 0.00 0.00 0.00 48 1016.5
20260506195248 7 243 3.2 4.8 0.00 0.00 0.00 49 1016.6
20260506194745 7 173 3.2 3.2 0.00 0.00 0.00 50 1016.5
20260506194241 6 359 4.8 8.0 0.00 0.00 0.00 50 1016.5
20260506193739 6 186 1.6 3.2 0.00 0.00 0.00 51 1016.6
20260506193236 6 250 3.2 4.8 0.00 0.00 0.00 49 1016.6
20260506192732 6 169 6.4 11.3 0.00 0.00 0.00 49 1016.6
20260506192229 6 269 3.2 4.8 0.00 0.00 0.00 49 1016.8
20260506191726 6 235 3.2 4.8 0.00 0.00 0.00 49 1016.6
20260506191222 6 7 3.2 4.8 0.00 0.00 0.00 48 1016.6
20260506190719 6 18 4.8 8.0 0.00 0.00 0.00 49 1016.7
20260506190216 6 167 0.0 0.0 0.00 0.00 0.00 49 1016.5
20260506185713 6 168 4.8 4.8 0.00 0.00 0.00 48 1016.5
20260506185209 6 232 1.6 3.2 0.00 0.00 0.00 48 1016.5
20260506184707 7 330 8.0 14.5 0.00 0.00 0.00 48 1016.6
20260506184204 7 185 0.0 0.0 0.00 0.00 0.00 48 1016.5
20260506183701 6 48 6.4 8.0 0.00 0.00 0.00 48 1016.5
20260506183156 6 134 1.6 3.2 0.00 0.00 0.00 50 1016.8
20260506182654 6 139 0.0 3.2 0.00 0.00 0.00 50 1016.7
20260506182152 6 312 4.8 8.0 0.00 0.00 0.00 48 1016.6
20260506181649 6 269 8.0 11.3 0.00 0.00 0.00 48 1016.7
20260506181146 6 341 8.0 11.3 0.00 0.00 0.00 48 1016.9
20260506180643 6 73 4.8 8.0 0.00 0.00 0.00 48 1016.5
20260506180139 6 159 3.2 3.2 0.00 0.00 0.00 50 1016.7
20260506175636 6 183 3.2 3.2 0.00 0.00 0.00 50 1016.7
20260506175132 6 247 3.2 4.8 0.00 0.00 0.00 49 1016.9
20260506174631 6 296 8.0 11.3 0.00 0.00 0.00 49 1016.9
20260506174127 6 205 3.2 3.2 0.00 0.00 0.00 50 1016.8
20260506173625 6 31 6.4 8.0 0.00 0.00 0.00 50 1016.9
20260506173121 6 337 3.2 4.8 0.00 0.00 0.00 49 1017.1
20260506172619 6 168 3.2 4.8 0.00 0.00 0.00 49 1016.9
20260506172115 6 39 3.2 4.8 0.00 0.00 0.00 51 1016.9
20260506171613 6 162 4.8 8.0 0.00 0.00 0.00 49 1017.1
20260506171111 6 32 3.2 4.8 0.00 0.00 0.00 49 1017.1
20260506170608 5 258 1.6 3.2 0.00 0.00 0.00 51 1017.3
20260506170105 5 248 4.8 8.0 0.00 0.00 0.00 51 1017.2
20260506165603 6 203 4.8 8.0 0.00 0.00 0.00 49 1017.3
20260506165059 5 183 1.6 3.2 0.00 0.00 0.00 51 1017.4
20260506164556 5 142 1.6 3.2 0.00 0.00 0.00 52 1017.3
20260506164053 5 14 4.8 8.0 0.00 0.00 0.00 50 1017.2
20260506163549 5 101 6.4 8.0 0.00 0.00 0.00 50 1017.3
20260506163046 5 201 3.2 3.2 0.00 0.00 0.00 51 1017.2
20260506162542 5 352 6.4 14.5 0.00 0.00 0.00 50 1017.2
20260506162039 5 14 8.0 16.1 0.00 0.00 0.00 50 1017.2
20260506161536 5 322 4.8 11.3 0.00 0.00 0.00 51 1017.2
20260506161033 5 347 9.7 16.1 0.00 0.00 0.00 50 1017.2
20260506160531 5 283 6.4 11.3 0.00 0.00 0.00 49 1017.3
20260506160028 5 59 3.2 3.2 0.00 0.00 0.00 50 1017.1
20260506155526 5 129 11.3 19.3 0.00 0.00 0.00 49 1017.1
20260506153657 6 82 12.9 16.1 0.00 0.00 0.00 48 1017.1
20260506153154 6 83 9.7 22.5 0.00 0.00 0.00 50 1016.8
20260506152651 6 305 4.8 11.3 0.00 0.00 0.00 49 1016.9
20260506152149 6 17 9.7 11.3 0.00 0.00 0.00 49 1016.9
20260506151648 6 270 3.2 3.2 0.00 0.00 0.00 50 1017.2
20260506151144 5 193 1.6 3.2 0.00 0.00 0.00 52 1017.1
20260506150641 5 229 6.4 11.3 0.00 0.00 0.00 51 1016.9
20260506150138 5 130 11.3 14.5 0.00 0.00 0.00 50 1017.3
20260506145635 5 30 6.4 11.3 0.00 0.00 0.00 51 1017.1
20260506145131 5 225 8.0 11.3 0.00 0.00 0.00 53 1017.1
20260506144629 4 111 0.0 3.2 0.00 0.00 0.00 54 1017.1
20260506144125 4 314 11.3 16.1 0.00 0.00 0.00 52 1017.2
20260506143623 4 337 8.0 16.1 0.00 0.00 0.00 52 1017.2
20260506143121 4 182 1.6 3.2 0.00 0.00 0.00 52 1017.2
20260506142619 4 346 9.7 19.3 0.00 0.00 0.00 52 1017.3
20260506142117 4 181 1.6 3.2 0.00 0.00 0.00 53 1017.1
20260506141614 4 303 8.0 14.5 0.00 0.00 0.00 53 1017.2
20260506141112 5 308 11.3 16.1 0.00 0.00 0.00 51 1017.1
20260506140610 4 179 1.6 3.2 0.00 0.00 0.00 53 1017.1
20260506140107 4 5 3.2 4.8 0.00 0.00 0.00 54 1017.2
20260506135603 4 262 3.2 3.2 0.00 0.00 0.00 54 1016.9
20260506135100 4 341 3.2 4.8 0.00 0.00 0.00 53 1016.8
20260506134556 4 274 4.8 4.8 0.00 0.00 0.00 54 1016.8
20260506134052 4 186 4.8 4.8 0.00 0.00 0.00 54 1016.8
20260506133549 4 176 1.6 3.2 0.00 0.00 0.00 54 1016.9
20260506133046 4 181 0.0 0.0 0.00 0.00 0.00 54 1016.7
20260506132544 4 259 3.2 4.8 0.00 0.00 0.00 54 1016.6
20260506132041 4 188 0.0 3.2 0.00 0.00 0.00 55 1016.6
20260506131538 4 289 3.2 3.2 0.00 0.00 0.00 55 1016.6
20260506131034 3 181 3.2 3.2 0.00 0.00 0.00 56 1016.5
20260506130531 3 301 4.8 4.8 0.00 0.00 0.00 56 1016.8
20260506130029 3 178 1.6 3.2 0.00 0.00 0.00 57 1016.4
20260506125527 3 48 4.8 4.8 0.00 0.00 0.00 58 1016.3
20260506125024 3 126 3.2 4.8 0.00 0.00 0.00 58 1016.4
20260506124522 3 318 6.4 8.0 0.00 0.00 0.00 59 1016.2
20260506124020 2 158 0.0 0.0 0.00 0.00 0.00 61 1016.2
20260506123517 2 18 4.8 8.0 0.00 0.00 0.00 61 1016.1
20260506123015 2 315 4.8 4.8 0.00 0.00 0.00 61 1016.2
20260506122512 2 337 4.8 8.0 0.00 0.00 0.00 62 1016.0
20260506122010 2 145 0.0 0.0 0.00 0.00 0.00 63 1016.1
20260506121507 1 179 1.6 3.2 0.00 0.00 0.00 64 1015.9
20260506121003 1 154 3.2 4.8 0.00 0.00 0.00 65 1015.8
20260506120501 1 168 1.6 3.2 0.00 0.00 0.00 65 1015.7
20260506115958 1 221 0.0 3.2 0.00 0.00 0.00 66 1015.7
20260506115456 1 238 3.2 4.8 0.00 0.00 0.00 67 1015.5
20260506114954 1 243 3.2 4.8 0.00 0.00 0.00 68 1015.5
20260506114451 1 1 1.6 3.2 0.00 0.00 0.00 69 1015.4
20260506113950 0 339 4.8 8.0 0.00 0.00 0.00 70 1015.4
20260506113447 0 269 1.6 3.2 0.00 0.00 0.00 70 1015.4
20260506112943 0 162 0.0 3.2 0.00 0.00 0.00 71 1015.4
20260506112441 0 205 1.6 3.2 0.00 0.00 0.00 70 1015.2
20260506111938 0 228 3.2 3.2 0.00 0.00 0.00 71 1015.1
20260506111437 0 186 0.0 0.0 0.00 0.00 0.00 72 1015.2
20260506110933 0 188 0.0 0.0 0.00 0.00 0.00 71 1015.4
20260506110431 0 172 0.0 0.0 0.00 0.00 0.00 71 1015.6
20260506105927 0 167 0.0 0.0 0.00 0.00 0.00 71 1015.4
20260506105424 0 180 0.0 0.0 0.00 0.00 0.00 73 1015.4
20260506104921 0 162 0.0 3.2 0.00 0.00 0.00 75 1015.6
20260506104419 -1 170 0.0 0.0 0.00 0.00 0.00 75 1015.4
20260506103917 -1 171 0.0 0.0 0.00 0.00 0.00 75 1015.5
20260506103414 -1 167 0.0 0.0 0.00 0.00 0.00 74 1015.5
20260506102911 -1 173 0.0 0.0 0.00 0.00 0.00 74 1015.3
20260506102409 -1 173 0.0 0.0 0.00 0.00 0.00 73 1015.3
20260506101906 -1 173 0.0 0.0 0.00 0.00 0.00 74 1015.0
20260506101402 -1 173 0.0 0.0 0.00 0.00 0.00 75 1015.0
20260506100859 -1 172 0.0 0.0 0.00 0.00 0.00 74 1014.8
20260506100358 -1 170 0.0 0.0 0.00 0.00 0.00 74 1014.9
20260506095856 -1 170 0.0 0.0 0.00 0.00 0.00 74 1015.0
20260506095354 -1 168 0.0 0.0 0.00 0.00 0.00 74 1015.2
20260506094850 -1 168 0.0 0.0 0.00 0.00 0.00 74 1014.9
20260506094349 -1 176 0.0 0.0 0.00 0.00 0.00 75 1014.9
20260506093846 -1 175 0.0 0.0 0.00 0.00 0.00 75 1014.7
20260506093343 -1 177 0.0 0.0 0.00 0.00 0.00 74 1014.9
20260506092841 -1 177 0.0 0.0 0.00 0.00 0.00 74 1014.9
20260506092339 -1 171 0.0 0.0 0.00 0.00 0.00 74 1015.0
20260506091835 -1 172 0.0 0.0 0.00 0.00 0.00 74 1014.9
20260506091333 -1 172 0.0 0.0 0.00 0.00 0.00 75 1015.1
20260506090830 -1 172 0.0 0.0 0.00 0.00 0.00 75 1014.9
20260506090328 -1 172 0.0 0.0 0.00 0.00 0.00 75 1015.0
20260506085824 -1 172 0.0 0.0 0.00 0.00 0.00 74 1014.9
20260506085320 -1 172 0.0 0.0 0.00 0.00 0.00 73 1014.7
20260506084817 -1 172 0.0 0.0 0.00 0.00 0.00 73 1014.6
20260506084314 -1 172 0.0 0.0 0.00 0.00 0.00 71 1014.7
20260506083810 0 172 0.0 0.0 0.00 0.00 0.00 70 1014.6
20260506083308 0 172 0.0 0.0 0.00 0.00 0.00 70 1014.6
20260506082806 0 172 0.0 0.0 0.00 0.00 0.00 70 1014.6
20260506082304 0 172 0.0 0.0 0.00 0.00 0.00 70 1014.4
20260506081758 0 172 0.0 0.0 0.00 0.00 0.00 69 1014.6
20260506081256 0 172 0.0 0.0 0.00 0.00 0.00 68 1014.7
20260506080754 0 172 0.0 0.0 0.00 0.00 0.00 68 1014.8
20260506080250 0 172 0.0 0.0 0.00 0.00 0.00 68 1014.8
20260506073234 1 203 0.0 3.2 0.00 0.00 0.00 63 1014.5
20260506072731 1 177 0.0 0.0 0.00 0.00 0.00 63 1014.3
20260506072228 1 177 0.0 0.0 0.00 0.00 0.00 62 1014.2
20260506071726 1 180 0.0 3.2 0.00 0.00 0.00 62 1014.3
20260506071224 1 186 0.0 0.0 0.00 0.00 0.00 61 1014.2
20260506070720 2 180 0.0 0.0 0.00 0.00 0.00 61 1014.5
20260506070217 2 176 0.0 0.0 0.00 0.00 0.00 60 1014.5
20260506062154 2 181 0.0 0.0 0.00 0.00 0.00 57 1014.2
20260506061650 2 144 1.6 3.2 0.00 0.00 0.00 57 1014.4
20260506061148 2 181 0.0 3.2 0.00 0.00 0.00 57 1014.4
20260506060646 3 169 0.0 0.0 0.00 0.00 0.00 56 1014.4
20260506060143 3 180 3.2 4.8 0.00 0.00 0.00 55 1014.3
20260506051115 3 164 1.6 3.2 0.00 0.00 0.00 55 1014.0
20260506050613 3 198 0.0 3.2 0.00 0.00 0.00 54 1013.9
20260506050110 3 341 1.6 3.2 0.00 0.00 0.00 55 1013.7
20260506045103 3 282 0.0 3.2 0.00 0.00 0.00 54 1013.8
20260506044602 4 181 0.0 0.0 0.00 0.00 0.00 54 1013.7
20260506044058 4 238 1.6 3.2 0.00 0.00 0.00 54 1013.8
20260506043555 4 117 3.2 3.2 0.00 0.00 0.00 53 1013.7
20260506043053 4 175 0.0 0.0 0.00 0.00 0.00 54 1013.5
20260506042552 4 179 3.2 4.8 0.00 0.00 0.00 54 1013.6
20260506042049 4 183 1.6 3.2 0.00 0.00 0.00 53 1013.6
20260506041548 4 214 0.0 3.2 0.00 0.00 0.00 54 1013.6
20260506041044 5 273 3.2 4.8 0.00 0.00 0.00 53 1013.7
20260506040542 5 175 0.0 3.2 0.00 0.00 0.00 51 1013.6
20260506040038 5 327 4.8 4.8 0.00 0.00 0.00 51 1013.7
20260506035535 5 178 3.2 4.8 0.00 0.00 0.00 51 1013.8
20260506035032 5 307 6.4 8.0 0.00 0.00 0.00 51 1013.7
20260506034529 5 160 1.6 3.2 0.00 0.00 0.00 51 1013.4
20260506034026 5 160 3.2 3.2 0.00 0.00 0.00 50 1013.7
20260506033523 5 156 0.0 3.2 0.00 0.00 0.00 51 1013.4
20260506033021 5 25 3.2 4.8 0.00 0.00 0.00 50 1013.6
20260506032518 5 180 0.0 0.0 0.00 0.00 0.00 50 1013.4
20260506032014 6 143 6.4 8.0 0.00 0.00 0.00 50 1013.3
20260506031512 6 298 3.2 4.8 0.00 0.00 0.00 50 1013.4
20260506031009 6 168 3.2 4.8 0.00 0.00 0.00 50 1013.5
20260506030507 6 244 3.2 4.8 0.00 0.00 0.00 50 1013.5
20260506030004 6 134 0.0 3.2 0.00 0.00 0.00 50 1013.2
20260506025500 6 15 3.2 4.8 0.00 0.00 0.00 50 1013.2
20260506024957 6 347 6.4 11.3 0.00 0.00 0.00 50 1012.9
20260506024454 6 173 0.0 0.0 0.00 0.00 0.00 50 1012.8
20260506023949 6 205 1.6 3.2 0.00 0.00 0.00 49 1012.7
20260506023447 6 151 1.6 3.2 0.00 0.00 0.00 49 1012.7
20260506022943 6 194 1.6 3.2 0.00 0.00 0.00 48 1012.4
20260506022441 6 211 0.0 3.2 0.00 0.00 0.00 48 1012.4
20260506021939 6 210 0.0 0.0 0.00 0.00 0.00 47 1012.5
20260506021436 6 192 4.8 8.0 0.00 0.00 0.00 46 1012.4
20260506020933 6 234 3.2 4.8 0.00 0.00 0.00 46 1012.2
20260506020431 7 138 0.0 0.0 0.00 0.00 0.00 46 1012.2
20260506015927 7 191 3.2 4.8 0.00 0.00 0.00 45 1012.1
20260506015425 7 273 4.8 4.8 0.00 0.00 0.00 45 1012.0
20260506014922 7 280 4.8 4.8 0.00 0.00 0.00 45 1012.0